QPF
0.01 0.01 0.02 0.01 0.01 0.02 0.04 0.07 0.12 0.11 0.04 0.01 0.03 0.02 0.03 0.04 0.06 0.09 0.07 0.04 0.03 0.00 0.00 0.00 0.00 0.00 0.00 0.00 0.00 0.00 0.00 0.00 0.00 0.00 0.00 0.00 0.00 0.00
0.00 0.01 0.01 0.01 0.01 0.00 0.01 0.04 0.09 0.15 0.15 0.03 0.01 0.01 0.02 0.05 0.07 0.10 0.06 0.03 0.01 0.00 0.00 0.00 0.00 0.00 0.00 0.00 0.00 0.00 0.00 0.00 0.00 0.00 0.00 0.00 0.00 0.00
0.00 0.01 0.00 0.01 0.01 0.01 0.01 0.01 0.02 0.02 0.06 0.03 0.00 0.00 0.01 0.02 0.03 0.05 0.03 0.02 0.00 0.00 0.00 0.00 0.01 0.01 0.00 0.00 0.00 0.00 0.00 0.00 0.01 0.01 0.01 0.01 0.01 0.00
0.00 0.00 0.00 0.01 0.02 0.02 0.02 0.01 0.01 0.01 0.02 0.01 0.00 0.00 0.00 0.02 0.04 0.05 0.05 0.04 0.01 0.01 0.01 0.00 0.00 0.00 0.00 0.01 0.04 0.07 0.08 0.08 0.06 0.03 0.02 0.02 0.01 0.01
0.00 0.00 0.00 0.00 0.00 0.02 0.02 0.02 0.01 0.02 0.02 0.02 0.01 0.06 0.07 0.10 0.16 0.19 0.18 0.11 0.07 0.02 0.00 0.00 0.00 0.02 0.05 0.13 0.17 0.20 0.20 0.11 0.04 0.03 0.03 0.02 0.01 0.02
0.00 0.00 0.00 0.00 0.00 0.01 0.03 0.04 0.04 0.04 0.04 0.04 0.05 0.19 0.23 0.19 0.19 0.18 0.15 0.08 0.05 0.01 0.00 0.00 0.01 0.01 0.03 0.03 0.05 0.05 0.04 0.02 0.02 0.02 0.01 0.01 0.00 0.01
0.00 0.00 0.00 0.00 0.00 0.00 0.02 0.03 0.05 0.08 0.11 0.08 0.11 0.25 0.30 0.26 0.20 0.13 0.07 0.02 0.01 0.00 0.00 0.00 0.00 0.00 0.00 0.01 0.00 0.00 0.00 0.00 0.00 0.00 0.00 0.00 0.00 0.01
0.00 0.00 0.00 0.00 0.00 0.00 0.01 0.03 0.11 0.14 0.13 0.10 0.09 0.12 0.09 0.06 0.04 0.04 0.03 0.02 0.02 0.01 0.00 0.00 0.00 0.00 0.00 0.00 0.00 0.00 0.00 0.00 0.00 0.00 0.00 0.00 0.00 0.00
0.00 0.00 0.00 0.00 0.00 0.01 0.02 0.03 0.03 0.07 0.11 0.15 0.11 0.06 0.07 0.08 0.07 0.06 0.03 0.01 0.01 0.01 0.00 0.00 0.00 0.00 0.00 0.00 0.00 0.00 0.00 0.00 0.00 0.00 0.00 0.00 0.00 0.00
0.00 0.00 0.00 0.01 0.04 0.05 0.03 0.01 0.00 0.00 0.00 0.00 0.00 0.01 0.02 0.01 0.03 0.08 0.07 0.06 0.06 0.05 0.03 0.01 0.00 0.00 0.00 0.00 0.00 0.00 0.00 0.00 0.00 0.00 0.00 0.00 0.00 0.00
0.00 0.00 0.00 0.00 0.02 0.02 0.00 0.00 0.00 0.00 0.00 0.01 0.01 0.03 0.06 0.06 0.04 0.06 0.06 0.03 0.02 0.01 0.00 0.00 0.00 0.00 0.00 0.00 0.00 0.00 0.00 0.00 0.00 0.00 0.00 0.00 0.00 0.00
0.00 0.00 0.02 0.02 0.02 0.02 0.01 0.01 0.02 0.02 0.03 0.05 0.05 0.06 0.08 0.07 0.06 0.03 0.01 0.00 0.00 0.00 0.00 0.00 0.00 0.00 0.00 0.00 0.00 0.00 0.00 0.00 0.00 0.00 0.00 0.00 0.00 0.00
0.08 0.08 0.10 0.11 0.10 0.12 0.12 0.14 0.13 0.13 0.12 0.08 0.06 0.03 0.01 0.00 0.00 0.00 0.00 0.00 0.00 0.00 0.00 0.00 0.00 0.00 0.00 0.01 0.00 0.00 0.00 0.00 0.00 0.00 0.00 0.00 0.00 0.00
0.01 0.03 0.05 0.07 0.06 0.05 0.04 0.04 0.02 0.01 0.00 0.00 0.00 0.00 0.00 0.00 0.00 0.00 0.00 0.00 0.00 0.00 0.00 0.00 0.00 0.00 0.00 0.00 0.00 0.00 0.00 0.00 0.00 0.00 0.00 0.00 0.00 0.00
0.00 0.00 0.00 0.00 0.00 0.00 0.00 0.00 0.00 0.00 0.00 0.00 0.00 0.00 0.00 0.00 0.00 0.00 0.00 0.00 0.00 0.00 0.00 0.00 0.00 0.00 0.01 0.01 0.00 0.00 0.00 0.00 0.00 0.00 0.00 0.00 0.00 0.00
0.00 0.00 0.00 0.00 0.00 0.00 0.00 0.00 0.00 0.00 0.00 0.00 0.00 0.00 0.00 0.00 0.00 0.00 0.00 0.00 0.00 0.00 0.00 0.00 0.00 0.00 0.00 0.00 0.00 0.00 0.00 0.00 0.00 0.00 0.00 0.00 0.00 0.00
0.00 0.00 0.00 0.00 0.00 0.00 0.00 0.00 0.00 0.00 0.00 0.00 0.00 0.00 0.00 0.00 0.00 0.00 0.00 0.00 0.00 0.00 0.00 0.00 0.00 0.00 0.00 0.00 0.00 0.00 0.00 0.00 0.00 0.00 0.00 0.00 0.00 0.00
0.00 0.00 0.00 0.00 0.00 0.00 0.00 0.00 0.00 0.00 0.00 0.00 0.00 0.00 0.00 0.00 0.00 0.00 0.00 0.00 0.00 0.00 0.00 0.00 0.00 0.00 0.00 0.00 0.00 0.00 0.00 0.00 0.00 0.00 0.00 0.00 0.00 0.00
0.00 0.00 0.00 0.00 0.00 0.00 0.00 0.00 0.00 0.00 0.00 0.00 0.00 0.00 0.00 0.00 0.00 0.00 0.00 0.00 0.00 0.00 0.00 0.00 0.00 0.00 0.00 0.00 0.00 0.00 0.00 0.00 0.00 0.00 0.00 0.00 0.00 0.00
0.00 0.00 0.00 0.00 0.00 0.00 0.00 0.00 0.00 0.00 0.00 0.00 0.00 0.00 0.00 0.00 0.00 0.00 0.00 0.00 0.00 0.00 0.00 0.00 0.00 0.00 0.01 0.01 0.01 0.00 0.00 0.00 0.00 0.01 0.00 0.00 0.00 0.00
0.00 0.00 0.00 0.00 0.00 0.00 0.00 0.00 0.00 0.00 0.00 0.00 0.00 0.00 0.00 0.00 0.00 0.00 0.00 0.00 0.00 0.00 0.00 0.00 0.00 0.00 0.00 0.00 0.00 0.00 0.00 0.00 0.00 0.01 0.01 0.02 0.00 0.00
0.00 0.00 0.00 0.00 0.00 0.00 0.00 0.00 0.00 0.00 0.00 0.00 0.00 0.00 0.00 0.00 0.00 0.00 0.00 0.00 0.00 0.00 0.00 0.00 0.00 0.00 0.00 0.01 0.01 0.00 0.00 0.00 0.00 0.00 0.00 0.03 0.04 0.02
0.00 0.00 0.00 0.00 0.00 0.00 0.00 0.00 0.00 0.00 0.00 0.00 0.00 0.00 0.00 0.00 0.00 0.00 0.00 0.00 0.00 0.00 0.00 0.00 0.00 0.00 0.00 0.00 0.01 0.01 0.00 0.00 0.00 0.00 0.00 0.00 0.01 0.01
MSLP
1011.03 1011.11 1011.23 1011.37 1011.66 1011.94 1012.07 1012.10 1012.53 1012.12 1011.82 1011.25 1011.67 1011.12 1011.33 1011.54 1011.28 1011.79 1012.15 1012.40 1012.56 1012.51 1012.51 1012.66 1012.66 1012.53 1012.78 1012.70 1012.90 1013.02 1013.12 1013.21 1013.38 1013.79 1014.22 1014.29 1014.23 1014.22
1010.51 1010.61 1010.70 1010.83 1010.96 1011.21 1011.29 1011.46 1011.37 1011.40 1011.26 1010.98 1010.86 1010.58 1010.80 1010.97 1010.88 1010.99 1011.18 1011.51 1011.54 1011.72 1011.77 1011.94 1011.76 1012.01 1012.05 1012.25 1012.46 1012.53 1012.69 1012.79 1012.86 1013.05 1013.33 1013.78 1013.76 1013.60
1010.11 1010.17 1010.21 1010.23 1010.29 1010.45 1010.59 1010.60 1010.57 1010.68 1010.40 1009.89 1009.94 1009.85 1010.33 1010.28 1010.45 1010.44 1010.71 1010.57 1010.56 1010.57 1010.95 1010.86 1010.94 1011.18 1011.38 1011.42 1011.81 1011.84 1011.79 1012.13 1012.43 1012.56 1012.52 1012.78 1012.98 1013.06
1009.88 1009.90 1009.88 1009.81 1009.75 1009.62 1009.70 1009.83 1009.78 1009.72 1009.72 1009.25 1009.27 1009.55 1009.67 1009.66 1009.89 1009.99 1010.01 1009.88 1009.94 1009.87 1010.45 1010.66 1010.71 1010.70 1010.82 1010.81 1010.91 1011.07 1011.27 1011.59 1011.53 1011.85 1012.01 1012.00 1011.96 1012.13
1009.59 1009.56 1009.41 1009.44 1009.35 1009.21 1009.00 1009.02 1009.13 1009.03 1008.94 1008.71 1008.48 1008.80 1008.66 1008.80 1009.10 1009.33 1009.24 1009.27 1009.41 1009.67 1009.91 1010.23 1010.04 1010.03 1010.31 1010.42 1010.36 1010.50 1010.67 1010.43 1010.90 1011.25 1011.38 1011.45 1011.46 1011.47
1009.07 1008.99 1008.89 1008.83 1008.69 1008.61 1008.57 1008.47 1008.36 1008.44 1008.37 1008.14 1008.02 1008.13 1008.17 1008.20 1008.42 1008.66 1008.85 1009.28 1009.38 1009.52 1009.62 1009.89 1009.47 1009.68 1009.70 1010.04 1010.05 1010.25 1010.26 1010.21 1010.50 1010.71 1010.96 1010.96 1010.90 1010.90
1008.43 1008.34 1008.20 1008.11 1008.00 1007.87 1007.85 1007.74 1007.85 1007.86 1007.82 1007.52 1007.47 1007.82 1007.69 1008.16 1008.42 1008.09 1008.75 1008.91 1009.14 1009.59 1009.64 1009.89 1009.55 1009.42 1009.51 1009.72 1009.77 1010.06 1010.05 1009.98 1010.00 1010.31 1010.43 1010.53 1010.31 1010.19
1008.19 1008.01 1007.85 1007.69 1007.58 1007.38 1007.38 1007.39 1007.47 1007.46 1007.33 1006.92 1007.32 1007.57 1007.39 1007.53 1008.25 1007.96 1008.63 1009.14 1009.28 1009.69 1009.83 1010.09 1009.48 1009.55 1009.54 1009.71 1009.46 1009.73 1009.75 1009.70 1009.78 1009.82 1009.79 1009.84 1009.81 1009.72
1008.12 1008.03 1008.01 1008.05 1007.77 1007.60 1007.48 1007.78 1007.76 1007.56 1007.36 1007.13 1007.41 1007.67 1007.88 1008.32 1008.44 1008.16 1009.04 1009.32 1009.40 1009.92 1009.92 1009.59 1009.34 1009.66 1009.31 1009.06 1009.44 1009.80 1009.64 1009.60 1009.52 1009.49 1009.51 1009.52 1009.43 1009.26
1008.66 1008.34 1008.36 1008.33 1008.24 1008.28 1007.94 1008.23 1008.45 1008.40 1008.20 1008.26 1008.34 1008.76 1008.69 1008.66 1008.76 1009.21 1009.58 1009.79 1009.80 1009.80 1009.88 1010.02 1009.90 1009.70 1009.35 1009.18 1009.47 1009.57 1009.52 1009.44 1009.31 1009.25 1009.12 1009.02 1008.86 1008.70
1009.35 1009.13 1009.06 1009.00 1008.69 1008.52 1008.74 1008.82 1009.13 1009.38 1009.45 1009.49 1009.36 1009.55 1009.70 1009.65 1009.65 1009.95 1010.25 1009.94 1010.05 1010.41 1010.65 1010.79 1010.58 1010.41 1010.01 1009.61 1009.74 1009.60 1009.55 1009.42 1009.23 1009.11 1009.02 1008.90 1008.71 1008.30
1010.22 1010.26 1010.06 1009.87 1009.65 1009.53 1009.33 1009.46 1009.63 1010.09 1010.19 1010.41 1010.34 1010.76 1010.73 1010.72 1010.67 1010.52 1010.72 1011.04 1011.23 1011.21 1011.39 1011.45 1011.21 1011.05 1010.78 1010.10 1010.01 1009.80 1009.78 1009.20 1009.15 1009.15 1009.06 1008.81 1008.68 1008.39
1011.14 1011.17 1011.10 1010.90 1010.80 1010.58 1010.39 1010.39 1010.70 1010.76 1011.01 1011.18 1011.31 1011.37 1011.81 1012.02 1011.94 1011.82 1011.74 1011.70 1011.73 1011.60 1011.52 1011.69 1011.64 1011.66 1011.54 1011.12 1010.73 1010.49 1010.15 1009.41 1009.27 1008.99 1008.89 1008.59 1008.41 1008.25
1012.45 1012.44 1012.29 1012.01 1011.83 1011.72 1011.68 1011.73 1011.70 1011.76 1011.96 1012.10 1012.36 1012.74 1012.84 1012.96 1012.62 1012.28 1012.08 1011.93 1011.89 1011.99 1011.91 1012.02 1012.11 1012.06 1011.74 1011.27 1010.95 1010.61 1010.40 1010.19 1009.66 1009.08 1008.85 1008.50 1008.13 1007.81
1013.08 1013.07 1013.09 1013.01 1012.87 1012.81 1012.85 1012.87 1012.87 1012.97 1013.15 1013.26 1013.53 1013.67 1013.59 1013.16 1012.65 1012.45 1012.24 1012.28 1012.27 1012.09 1011.91 1011.88 1011.87 1011.73 1011.62 1011.33 1011.05 1010.64 1010.26 1009.75 1009.50 1009.23 1008.78 1008.46 1007.94 1007.38
1013.43 1013.48 1013.56 1013.70 1013.62 1013.73 1013.77 1013.77 1013.74 1013.74 1013.81 1013.82 1013.97 1013.90 1013.68 1013.63 1013.58 1013.42 1013.48 1013.21 1012.76 1012.50 1011.79 1011.55 1011.35 1011.49 1011.32 1010.96 1010.67 1010.26 1010.17 1009.98 1009.28 1008.90 1008.55 1008.06 1007.53 1007.07
1013.69 1013.80 1013.92 1014.03 1014.18 1014.26 1014.37 1014.42 1014.42 1014.40 1014.41 1014.47 1014.48 1014.41 1014.31 1014.30 1014.21 1013.94 1013.96 1013.63 1013.49 1013.30 1012.95 1012.13 1011.57 1011.20 1010.88 1010.56 1010.14 1009.82 1009.62 1009.42 1009.22 1008.79 1008.43 1007.80 1007.03 1006.48
1013.77 1014.16 1014.44 1014.59 1014.73 1014.86 1014.90 1014.92 1014.95 1014.96 1015.06 1015.08 1015.09 1014.91 1014.74 1014.62 1014.52 1014.52 1014.55 1014.40 1014.46 1014.01 1013.52 1012.87 1012.21 1011.55 1010.81 1009.81 1009.37 1009.47 1009.27 1008.99 1008.63 1008.03 1007.75 1007.28 1006.55 1005.91
1013.73 1014.06 1014.27 1014.48 1014.64 1014.82 1014.99 1015.07 1015.16 1015.23 1015.28 1015.27 1015.33 1015.26 1015.20 1014.96 1014.93 1014.92 1014.81 1014.60 1014.40 1014.03 1013.62 1013.13 1012.50 1012.23 1011.32 1010.35 1009.24 1008.74 1008.98 1008.19 1007.66 1007.31 1006.96 1006.52 1005.87 1005.27
1013.53 1013.86 1014.16 1014.42 1014.70 1014.93 1015.12 1015.27 1015.35 1015.42 1015.46 1015.64 1015.70 1015.56 1015.64 1015.60 1015.32 1015.27 1015.06 1014.85 1014.34 1013.88 1013.56 1012.97 1012.55 1012.31 1011.80 1010.86 1009.80 1008.78 1008.18 1007.69 1007.24 1006.68 1006.19 1005.63 1005.29 1004.80
1013.66 1013.97 1014.22 1014.54 1014.83 1015.10 1015.24 1015.32 1015.38 1015.53 1015.48 1015.73 1015.95 1016.03 1015.94 1016.13 1015.61 1015.23 1014.88 1014.36 1013.88 1013.78 1013.39 1012.71 1012.25 1011.73 1011.19 1010.33 1009.40 1008.22 1007.46 1007.23 1006.98 1006.54 1005.91 1005.48 1004.96 1004.37
1013.17 1013.42 1013.70 1014.03 1014.38 1014.70 1014.94 1015.12 1015.41 1015.62 1015.68 1015.61 1015.86 1015.89 1015.95 1016.01 1015.55 1015.08 1014.73 1014.41 1013.96 1013.55 1013.02 1012.31 1011.55 1010.96 1010.49 1010.17 1009.29 1008.34 1007.35 1006.57 1006.19 1005.89 1005.59 1005.34 1004.91 1004.18
1012.58 1012.83 1013.16 1013.50 1013.87 1014.31 1014.65 1014.97 1015.26 1015.44 1015.48 1015.58 1015.61 1015.50 1015.63 1015.58 1015.09 1014.77 1014.36 1014.00 1013.65 1013.17 1012.69 1011.94 1011.33 1010.95 1010.41 1009.94 1009.09 1008.20 1007.36 1006.63 1006.22 1005.72 1005.09 1004.44 1004.14 1003.76
Thickness
5611 5614 5616 5617 5617 5616 5616 5617 5613 5616 5628 5636 5631 5637 5636 5635 5641 5635 5631 5628 5626 5626 5626 5624 5622 5622 5619 5619 5617 5615 5614 5613 5611 5604 5598 5597 5597 5597
5600 5601 5603 5605 5606 5605 5606 5605 5607 5608 5612 5623 5626 5630 5629 5627 5629 5627 5625 5621 5622 5620 5621 5618 5619 5616 5615 5611 5609 5609 5606 5603 5600 5598 5593 5586 5586 5586
5585 5586 5589 5591 5592 5593 5594 5595 5597 5598 5600 5615 5618 5622 5618 5619 5617 5616 5613 5617 5619 5617 5615 5615 5614 5612 5610 5608 5602 5599 5598 5592 5587 5584 5583 5580 5577 5577
5566 5566 5569 5571 5574 5578 5581 5584 5587 5588 5591 5602 5607 5608 5607 5609 5604 5606 5608 5609 5609 5609 5602 5601 5601 5601 5598 5598 5595 5590 5587 5582 5581 5578 5575 5576 5574 5571
5545 5546 5550 5550 5556 5560 5564 5570 5574 5578 5582 5587 5596 5597 5601 5601 5599 5599 5602 5602 5599 5595 5592 5590 5591 5591 5586 5584 5583 5581 5579 5578 5574 5570 5569 5566 5567 5566
5534 5535 5537 5537 5540 5543 5547 5553 5560 5563 5569 5575 5582 5586 5590 5592 5591 5594 5593 5589 5587 5582 5580 5577 5581 5577 5575 5569 5570 5568 5567 5569 5567 5566 5563 5563 5564 5563
5524 5523 5524 5526 5530 5534 5538 5546 5549 5555 5560 5567 5573 5573 5577 5576 5577 5582 5582 5581 5578 5569 5568 5563 5565 5567 5562 5560 5558 5555 5557 5560 5561 5559 5558 5558 5560 5561
5512 5510 5510 5510 5513 5517 5524 5530 5535 5545 5555 5562 5565 5564 5566 5566 5561 5568 5566 5564 5564 5554 5550 5546 5553 5549 5549 5547 5550 5548 5550 5552 5551 5552 5553 5552 5552 5553
5507 5502 5498 5496 5500 5503 5508 5511 5519 5529 5536 5544 5549 5541 5545 5542 5544 5548 5547 5545 5543 5535 5534 5539 5538 5535 5538 5542 5539 5537 5540 5540 5542 5542 5542 5542 5542 5543
5501 5497 5492 5490 5490 5490 5495 5496 5500 5509 5517 5522 5524 5522 5525 5527 5527 5524 5523 5520 5519 5521 5521 5520 5520 5525 5529 5531 5527 5527 5527 5526 5527 5527 5527 5528 5529 5530
5498 5493 5489 5485 5485 5485 5484 5487 5489 5493 5498 5501 5505 5506 5508 5508 5508 5507 5504 5507 5508 5504 5501 5501 5506 5509 5513 5515 5513 5511 5509 5509 5510 5511 5510 5510 5511 5514
5494 5488 5485 5483 5482 5480 5481 5482 5484 5484 5485 5486 5488 5487 5488 5486 5489 5490 5488 5485 5483 5486 5484 5486 5488 5489 5493 5495 5494 5493 5491 5492 5492 5490 5489 5490 5490 5493
5489 5484 5480 5477 5475 5475 5476 5475 5473 5472 5472 5471 5472 5472 5469 5468 5469 5469 5469 5469 5469 5470 5471 5470 5470 5468 5468 5470 5472 5470 5468 5470 5470 5470 5469 5469 5469 5469
5475 5472 5470 5470 5469 5468 5466 5464 5464 5462 5460 5458 5455 5452 5451 5450 5451 5454 5454 5454 5453 5451 5451 5449 5448 5447 5448 5450 5449 5447 5445 5443 5445 5447 5447 5447 5447 5447
5466 5463 5460 5458 5457 5455 5453 5451 5449 5445 5442 5440 5437 5435 5435 5436 5439 5439 5439 5437 5436 5435 5433 5432 5430 5429 5426 5426 5427 5425 5425 5426 5421 5421 5422 5421 5423 5424
5455 5451 5448 5444 5442 5438 5435 5433 5431 5429 5426 5424 5421 5420 5419 5418 5416 5414 5413 5412 5412 5411 5414 5413 5411 5408 5406 5405 5405 5405 5401 5399 5400 5399 5399 5398 5398 5397
5441 5437 5433 5430 5425 5422 5418 5414 5412 5408 5406 5403 5400 5399 5399 5396 5393 5391 5389 5392 5390 5386 5379 5384 5387 5388 5387 5386 5386 5384 5381 5378 5375 5374 5373 5375 5373 5372
5426 5420 5414 5410 5406 5402 5399 5395 5391 5387 5384 5380 5377 5376 5373 5370 5369 5367 5363 5357 5357 5355 5357 5360 5362 5362 5363 5365 5368 5363 5359 5358 5355 5354 5352 5355 5354 5347
5410 5403 5399 5394 5389 5384 5378 5373 5368 5364 5360 5357 5355 5351 5349 5349 5345 5341 5340 5337 5336 5335 5336 5337 5337 5333 5344 5342 5342 5344 5337 5338 5340 5336 5333 5332 5334 5328
5391 5385 5378 5372 5366 5360 5355 5350 5347 5342 5339 5334 5330 5328 5324 5322 5321 5319 5318 5314 5316 5313 5311 5313 5310 5307 5317 5321 5322 5319 5319 5322 5318 5315 5311 5309 5304 5301
5372 5364 5357 5350 5343 5336 5332 5328 5324 5320 5318 5313 5308 5304 5302 5297 5298 5297 5297 5302 5303 5296 5299 5298 5297 5298 5298 5301 5305 5306 5301 5296 5294 5291 5287 5283 5279 5277
5361 5353 5344 5334 5325 5317 5312 5308 5303 5300 5296 5295 5290 5286 5282 5279 5278 5280 5280 5279 5280 5280 5280 5281 5283 5284 5283 5282 5283 5284 5283 5280 5273 5271 5267 5263 5262 5264
5348 5338 5327 5316 5307 5301 5295 5289 5286 5282 5279 5276 5272 5270 5266 5263 5265 5265 5265 5265 5264 5264 5265 5266 5266 5264 5264 5263 5264 5264 5265 5264 5258 5254 5254 5257 5257 5259